DIRECTV 8

Last updated on Fri Dec 19 2025 00:02:49 GMT+0000 (Coordinated Universal Time)

1 28659U 05019A 25352.59779191 .00000000 00000+0 00000+0 0 9998 2 28659 0.0267 353.8079 0002847 284.0451 265.7617 1.00270136 75261
UTC large
Height (km)
Speed (km/s)
/
Latitude / Longitude
Inclination (degrees)
Orbital Period (minutes)
Azimuth
Elevation
Range (km)
Doppler Factor

Next 0 passes for location: London (51.5072 / 0.1276)

Sorry there are no passes over London.